Regional Weather Roundup
Issued by NWS

Home | Current Version | Previous Version | Graphics & Text | Print | Product List | Glossary On
Versions: 1 2 3 4 5 6 7 8 9 10 11 12 13 14 15 16 17 18 19 20 21 22 23 24 25 26 27 28 29 30 31 32 33 34 35 36 37 38 39 40 41 42 43 44 45 46 47 48 49 50
732
ASUS45 KCYS 252110
RWRWY

WYOMING REGIONAL WEATHER ROUNDUP
NATIONAL WEATHER SERVICE CHEYENNE WY
300 PM MDT THU MAY 25 2017

NOTE:  "FAIR" INDICATES FEW OR NO CLOUDS BELOW 12,000 FEET
WITH NO SIGNIFICANT WEATHER AND/OR OBSTRUCTIONS TO VISIBILITY.

WYZ001-252200-
YELLOWSTONE NATIONAL PARK

CITY           SKY/WX    TMP DP  RH WIND       PRES   REMARKS
LK YELLOWSTONE   N/A     42  22  44 W3        29.86R
W YELLOWSTONE  NOT AVBL

$$
WYZ002>013-054>058-071-098>099-252200-
NORTHERN WYOMING

CITY           SKY/WX    TMP DP  RH WIND       PRES   REMARKS
JACKSON        MOSUNNY   54  16  22 E7        29.78R
CODY           FAIR      57  31  37 N13       29.76R
GREYBULL       PTSUNNY   61  31  32 N20G30    29.72R
WORLAND        FAIR      61  33  35 N18G33    29.71
SHERIDAN       FAIR      59  38  45 NW26G35   29.70R
BUFFALO        CLOUDY    52  36  54 NW24G39   29.71R
GILLETTE       FAIR      59  41  51 NW21G32   29.67R
HULETT         FAIR      63  34  34 W17G24    29.64R
NEWCASTLE      FAIR      63  28  27 NW13G28   29.64S

$$
WYZ014>020-022>026-101>103-252200-
CENTRAL WYOMING

CITY           SKY/WX    TMP DP  RH WIND       PRES   REMARKS
BIG PINEY      FAIR      56  18  22 VRB3      29.77S
PINEDALE       FAIR      52  19  28 NW14      29.77S
DUBOIS         NOT AVBL
LANDER         FAIR      64  24  21 N10       29.68R
RIVERTON       FAIR      63  24  22 NE16G22   29.69R
CASPER         FAIR      62  26  25 NW13G26   29.68R
DOUGLAS        PTSUNNY   65  36  34 NW10      29.65S

$$
WYZ021-027>030-104>119-252200-
SOUTHERN WYOMING

CITY           SKY/WX    TMP DP  RH WIND       PRES   REMARKS
EVANSTON       PTSUNNY   57  29  34 W20G25    29.81R
KEMMERER         N/A     52  23  32 W12G20    29.81R
FORT BRIDGER   CLOUDY    56  23  28 W16G29    29.82R
ROCK SPRINGS   FAIR      59  24  26 W16G31    29.75S
RAWLINS        FAIR      60  30  32 W20G25    29.74R
SARATOGA       CLOUDY    55  36  47 W18G28    29.76S
LARAMIE        CLOUDY    58  39  49 SW18      29.71R
CHEYENNE       FAIR      60  40  47 N12       29.68F
TORRINGTON     PTSUNNY   66  38  35 W15G23    29.59R

$$




USA.gov is the U.S. government's official web portal to all federal, state and local government web resources and services.